TimeMDT,TemperatureF,Dew PointF,Humidity,Sea Level PressureIn,VisibilityMPH,Wind Direction,Wind SpeedMPH,Gust SpeedMPH,PrecipitationIn,Events,Conditions,WindDirDegrees,DateUTC
12:53 AM,36.0,32.0,86,30.13,10.0,SE,6.9,-,N/A,,Clear,140,2013-03-29 06:53:00
1:53 AM,36.0,32.0,86,30.14,10.0,SE,6.9,-,N/A,,Clear,140,2013-03-29 07:53:00
2:53 AM,35.1,30.9,85,30.13,10.0,SSE,4.6,-,N/A,,Clear,160,2013-03-29 08:53:00
3:53 AM,39.9,33.1,77,30.11,10.0,South,3.5,-,N/A,,Clear,180,2013-03-29 09:53:00
4:53 AM,39.0,34.0,82,30.11,10.0,South,4.6,-,N/A,,Clear,170,2013-03-29 10:53:00
5:53 AM,41.0,35.1,79,30.11,10.0,South,5.8,-,N/A,,Clear,190,2013-03-29 11:53:00
6:53 AM,37.9,34.0,86,30.14,10.0,Calm,Calm,-,N/A,,Clear,0,2013-03-29 12:53:00
7:53 AM,44.1,37.9,79,30.12,10.0,SSE,8.1,-,N/A,,Overcast,150,2013-03-29 13:53:00
8:53 AM,46.9,39.0,74,30.14,10.0,West,6.9,-,N/A,,Partly Cloudy,260,2013-03-29 14:53:00
9:53 AM,50.0,39.9,68,30.12,10.0,South,10.4,-,N/A,,Mostly Cloudy,170,2013-03-29 15:53:00
10:53 AM,59.0,41.0,51,30.09,10.0,South,13.8,18.4,N/A,,Clear,180,2013-03-29 16:53:00
11:53 AM,64.9,42.1,43,30.06,10.0,South,16.1,-,N/A,,Clear,180,2013-03-29 17:53:00
12:53 PM,69.1,39.9,35,30.03,10.0,South,21.9,27.6,N/A,,Clear,170,2013-03-29 18:53:00
1:53 PM,70.0,37.0,30,30.01,10.0,SSW,20.7,26.5,N/A,,Clear,200,2013-03-29 19:53:00
2:53 PM,70.0,37.9,31,29.98,10.0,SSW,17.3,28.8,N/A,,Clear,200,2013-03-29 20:53:00
3:53 PM,70.0,37.9,31,29.94,10.0,SSW,19.6,28.8,N/A,,Clear,200,2013-03-29 21:53:00
4:53 PM,66.9,39.0,36,29.94,10.0,SSW,17.3,25.3,N/A,,Mostly Cloudy,210,2013-03-29 22:53:00
5:06 PM,64.4,39.2,40,29.97,8.0,West,33.4,41.4,0.01,Rain-Thunderstorm,Light Thunderstorms and Rain,260,2013-03-29 23:06:00
5:15 PM,59.0,44.6,59,29.97,5.0,WSW,15.0,38.0,0.03,Rain,Light Rain,240,2013-03-29 23:15:00
5:25 PM,60.8,44.6,55,29.96,10.0,West,10.4,-,0.03,Thunderstorm,Mostly Cloudy,260,2013-03-29 23:25:00
5:49 PM,60.8,44.6,55,29.96,10.0,SW,11.5,-,0.03,,Clear,230,2013-03-29 23:49:00
5:53 PM,61.0,44.1,54,29.96,10.0,SW,10.4,-,0.03,,Clear,220,2013-03-29 23:53:00
6:53 PM,59.0,41.0,51,29.97,10.0,SW,6.9,-,N/A,,Clear,230,2013-03-30 00:53:00
7:53 PM,53.1,39.9,61,29.97,10.0,SW,6.9,-,N/A,,Clear,230,2013-03-30 01:53:00
8:53 PM,50.0,39.9,68,29.98,10.0,West,9.2,-,N/A,,Clear,270,2013-03-30 02:53:00
9:53 PM,48.0,37.9,68,29.99,10.0,WNW,8.1,-,N/A,,Clear,300,2013-03-30 03:53:00
10:53 PM,46.9,37.0,68,29.99,10.0,WNW,8.1,-,N/A,,Clear,300,2013-03-30 04:53:00
11:53 PM,48.0,36.0,63,29.97,10.0,WNW,8.1,-,N/A,,Clear,300,2013-03-30 05:53:00